www.pogodaiklimat.ru

Погода и климат >> Архив погоды >> Великобритания >> Ростерн Мир


ПОГОДА на Ростерн Мир

  • Прогноз погоды на Ростерн Мир
  • Монитор погоды на Ростерн Мир

АРХИВ ПОГОДЫ на Ростерн Мир

Время (UTC), дата Ветер
(напр.,м/с)
 
Видим.   Явления Облачность Т
(С)
Тd
(С)
f
(%)
Тe
(С)
Тes
(С)
Комфортность P
(гПа)
Po
(гПа)
Тmin
(С)
Tmax
(С)
R
(мм)
R24
(мм)
S
(см)
22 13.06 ЮВ 2 30 км н/о +9.8 +8.9 94 +9 +9 1006.0 1001.7
23 13.06 Ю 2 30 км н/о +10.2 +9.0 92 +9 +9 1006.1 1001.8
00 14.06 ЮЗ 1 22 км н/о +10.2 +9.2 94 +10 +10 1006.1 1001.8
01 14.06 З 1 4500 м слаб. ливневой дождь н/о +9.9 +9.2 95 +10 +10 1006.0 1001.7
02 14.06 ЮВ 1 7000 м слаб. морось н/о +9.7 +9.2 97 +9 +9 1005.6 1001.4
03 14.06 Ю 2 8000 м дождь н/о +9.6 +9.2 97 +8 +8 1005.5 1001.3
04 14.06 Ю 2 5000 м дождь н/о +9.6 +9.3 98 +8 +8 1005.5 1001.3
05 14.06 Ю 3 8000 м дождь н/о +9.8 +9.6 99 +7 +7 1005.5 1001.3
06 14.06 Ю 4 9000 м дождь н/о +10.0 +9.7 98 +7 +7 1005.6 1001.3 +9.5 4
07 14.06 Ю 3 14 км слаб. дождь н/о +10.5 +10.1 97 +8 +8 1005.5 1001.3
08 14.06 Ю 3 19 км слаб. дождь н/о +11.2 +10.5 95 +9 +9 1005.9 1001.7
09 14.06 Ю 4 35 км слаб. ливневой дождь н/о +12.0 +10.3 89 +10 +10 1006.3 1002.1
10 14.06 ЮЗ 3 50 км в посл. час дождь н/о +13.0 +10.0 82 +12 +12 1006.9 1002.7
11 14.06 ЮЗ 3 35 км н/о +14.2 +8.7 69 +13 +13 1007.4 1003.2
12 14.06 ЮЗ 4 29 км н/о +15.9 +9.8 67 +15 +15 1007.3 1003.1 1
13 14.06 ЮЗ 3 35 км н/о +15.9 +7.5 57 +16 +16 1007.5 1003.4
14 14.06 Ю 4 29 км н/о +15.9 +8.7 62 +15 +15 1007.7 1003.5
15 14.06 Ю 3 29 км н/о +16.0 +9.0 63 +16 +16 1007.6 1003.5
16 14.06 ЮЗ 2 30 км н/о +16.6 +9.4 62 +17 +17 1007.7 1003.6
17 14.06 Ю 2 30 км н/о +16.3 +9.5 64 +16 +16 1007.7 1003.5
18 14.06 Ю 3 6000 м сильн. ливневой дождь н/о +12.9 +12.0 94 +11 +11 1008.4 1004.2 +16.8 6
19 14.06 Ю 2 29 км в посл. час дождь н/о +13.3 +12.5 95 +13 +13 1008.4 1004.2
20 14.06 Ю 3 50 км в посл. час дождь н/о +13.0 +12.1 94 +12 +12 1008.6 1004.4
21 14.06 Ю 3 45 км н/о +11.9 +11.3 96 +10 +10 1009.1 1004.9
22 14.06 Ю 3 26 км н/о +11.6 +11.2 97 +10 +10 1009.4 1005.1
23 14.06 Ю 2 40 км н/о +12.3 +11.3 94 +11 +11 1009.3 1005.1
00 15.06 Ю 2 25 км н/о +10.7 +9.7 94 +9 +9 1009.7 1005.5 0.6
01 15.06 ЮВ 2 13 км н/о +11.0 +10.6 97 +10 +10 1009.7 1005.4
02 15.06 ЮВ 3 23 км н/о +10.7 +10.1 96 +8 +8 1009.5 1005.2
03 15.06 ЮВ 2 21 км н/о +10.7 +9.6 93 +9 +9 1009.2 1005.0
04 15.06 Ю 3 24 км н/о +10.8 +9.7 93 +9 +9 1009.0 1004.7
05 15.06 ЮВ 5 19 км н/о +10.3 +9.1 92 +7 +7 1009.0 1004.8
06 15.06 Ю 5 21 км н/о +11.4 +9.8 90 +9 +9 1008.9 1004.7 +10.2 0.6
07 15.06 Ю 5 24 км н/о +12.0 +9.9 87 +10 +10 1008.9 1004.7
08 15.06 Ю 6 35 км н/о +13.0 +10.4 84 +11 +11 1008.8 1004.6
09 15.06 Ю 6 35 км н/о +14.0 +10.5 79 +12 +12 1009.2 1005.0
10 15.06 Ю 6 30 км н/о +14.2 +10.6 79 +12 +12 1009.2 1005.0
11 15.06 Ю 6 50 км н/о +15.6 +10.9 74 +14 +14 1009.2 1005.1
12 15.06 Ю 6 45 км н/о +14.9 +10.7 76 +13 +13 1009.7 1005.5
13 15.06 ЮЗ 3 6000 м сильн. ливневой дождь н/о +12.2 +11.5 95 +11 +11 1010.0 1005.8
14 15.06 ЮВ 4 28 км слаб. дождь н/о +14.4 +13.7 96 +13 +13 1009.7 1005.5
15 15.06 Ю 3 40 км слаб. ливневой дождь н/о +14.3 +13.2 93 +13 +13 1009.9 1005.7
16 15.06 Ю 3 40 км в посл. час дождь н/о +15.9 +13.2 84 +15 +15 1009.6 1005.5
17 15.06 С 3 30 км н/о +13.4 +11.1 86 +12 +12 1010.1 1005.9
18 15.06 С 2 28 км н/о +13.0 +10.5 85 +13 +13 1010.4 1006.2 +16.2 6
19 15.06 СВ 1 40 км в посл. час дождь н/о +13.3 +10.1 81 +14 +14 1010.7 1006.5
20 15.06 ЮВ 1 26 км н/о +11.6 +10.0 90 +11 +11 1010.9 1006.6
21 15.06 ЮЗ 3 4700 м ливневой дождь н/о +11.4 +10.9 97 +10 +10 1011.5 1007.2
22 15.06 ЮЗ 1 15 км в посл. час дождь н/о +10.7 +10.0 95 +10 +10 1011.8 1007.5
23 15.06 Ю 1 11 км н/о +8.7 +7.9 95 +9 +9 1012.0 1007.8
00 16.06 ЮВ 2 4200 м в посл. час туман н/о +7.4 +7.2 99 +5 +5 1012.3 1008.0 2
01 16.06 ЮВ 1 4500 м дымка н/о +7.0 +6.8 99 +6 +6 1012.4 1008.1
02 16.06 ЮВ 2 23 км н/о +7.3 +7.2 99 +5 +5 1012.3 1008.0
03 16.06 Ю 3 30 км н/о +8.5 +7.5 93 +6 +6 1012.1 1007.9
04 16.06 Ю 3 40 км н/о +8.4 +7.1 92 +6 +6 1012.2 1007.9
05 16.06 Ю 3 35 км н/о +8.7 +7.9 95 +6 +6 1012.2 1007.9
06 16.06 Ю 4 24 км н/о +10.5 +9.1 91 +8 +8 1012.3 1008.1 +6.6 2
07 16.06 Ю 4 18 км н/о +11.5 +10.1 91 +9 +9 1012.5 1008.2
08 16.06 Ю 5 30 км н/о +11.8 +9.5 86 +9 +9 1012.7 1008.4
09 16.06 Ю 4 35 км н/о +13.4 +10.3 81 +12 +12 1012.7 1008.4
10 16.06 Ю 5 30 км н/о +13.7 +10.5 81 +12 +12 1012.7 1008.5
11 16.06 Ю 4 40 км н/о +14.9 +11.1 78 +14 +14 1012.5 1008.4
12 16.06 Ю 5 45 км н/о +15.7 +10.5 71 +15 +15 1012.2 1008.0
13 16.06 Ю 5 11 км ливневой дождь н/о +13.2 +11.2 88 +11 +11 1012.4 1008.2
14 16.06 ЮЗ 5 29 км в посл. час дождь н/о +15.4 +11.9 80 +14 +14 1012.3 1008.1
15 16.06 З 5 30 км в посл. час дождь н/о +16.5 +11.9 74 +16 +16 1012.3 1008.2
16 16.06 ЮЗ 5 30 км н/о +17.7 +10.2 61 +17 +17 1012.3 1008.2
17 16.06 ЮЗ 4 35 км н/о +16.8 +10.3 65 +16 +16 1012.5 1008.3
18 16.06 Ю 4 45 км в посл. час дождь н/о +15.3 +11.2 77 +14 +14 1012.4 1008.3 +18.4 1
19 16.06 Ю 5 50 км н/о +16.0 +11.4 74 +15 +15 1012.3 1008.1
20 16.06 Ю 6 40 км н/о +15.6 +11.6 77 +14 +14 1012.2 1008.1
21 16.06 Ю 6 50 км н/о +15.1 +11.5 79 +13 +13 1012.5 1008.3
22 16.06 Ю 5 50 км н/о +14.6 +11.1 80 +13 +13 1012.5 1008.3
23 16.06 Ю 6 50 км н/о +14.5 +10.2 75 +13 +13 1012.5 1008.3
00 17.06 Ю 5 30 км в посл. час дождь н/о +13.9 +10.8 82 +12 +12 1012.7 1008.5 0.0
01 17.06 Ю 6 45 км в посл. час дождь н/о +13.8 +11.1 84 +12 +12 1012.4 1008.2
02 17.06 Ю 6 50 км н/о +14.0 +10.9 82 +12 +12 1012.5 1008.3
03 17.06 Ю 5 45 км в посл. час дождь н/о +13.9 +11.0 83 +12 +12 1012.6 1008.4
04 17.06 З 3 2200 м морось с дождем н/о +12.5 +11.5 94 +11 +11 1013.2 1009.0
05 17.06 ЮЗ 3 19 км слаб. дождь н/о +12.0 +11.0 94 +10 +10 1013.4 1009.2
06 17.06 Ю 3 4300 м слаб. морось с дождем н/о +12.0 +11.3 95 +10 +10 1013.7 1009.5 +12.0 2
07 17.06 Ю 3 40 км в посл. час дождь н/о +12.0 +11.4 96 +10 +10 1013.7 1009.4
08 17.06 Ю 3 4700 м в посл. час дождь н/о +12.8 +12.2 96 +11 +11 1013.7 1009.5
09 17.06 ЮЗ 3 19 км слаб. морось с дождем н/о +13.7 +13.1 96 +13 +13 1014.2 1010.0
10 17.06 Ю 4 40 км слаб. морось с дождем н/о +14.3 +11.9 85 +13 +13 1014.2 1010.0
11 17.06 ЮЗ 4 40 км в посл. час дождь н/о +15.7 +12.1 79 +15 +15 1014.4 1010.2
12 17.06 Ю 5 30 км н/о +16.9 +11.5 70 +16 +16 1014.4 1010.2 0.8
13 17.06 Ю 5 35 км н/о +16.7 +11.5 71 +16 +16 1014.2 1010.0
14 17.06 Ю 4 35 км н/о +18.2 +13.5 74 +18 +18 1014.0 1009.9
15 17.06 Ю 4 30 км н/о +17.3 +12.7 74 +17 +17 1013.7 1009.6
16 17.06 З 4 7000 м слаб. морось н/о +15.3 +13.2 87 +14 +14 1013.9 1009.7
17 17.06 З 4 3700 м слаб. ливневой дождь н/о +15.2 +13.8 91 +14 +14 1014.1 1010.0
18 17.06 ЮЗ 3 45 км в посл. час дождь н/о +15.3 +13.4 88 +15 +15 1014.0 1009.8 +18.7 2
19 17.06 ЮЗ 2 40 км в посл. час дождь н/о +15.0 +13.7 92 +15 +15 1014.0 1009.8
20 17.06 Ю 2 35 км в посл. час дождь н/о +14.2 +12.5 90 +14 +14 1014.1 1009.9
21 17.06 Ю 2 25 км н/о +13.7 +12.4 92 +13 +13 1014.6 1010.4
22 17.06 Ю 2 26 км н/о +12.5 +11.5 94 +12 +12 1014.9 1010.7
23 17.06 ЮЗ 1 20 км н/о +11.6 +11.0 96 +11 +11 1014.9 1010.7
00 18.06 Ю 2 14 км н/о +10.6 +10.2 97 +9 +9 1014.9 1010.6 2
01 18.06 ЮЗ 2 23 км н/о +11.5 +11.0 97 +11 +11 1014.6 1010.3
02 18.06 Ю 2 23 км н/о +11.5 +10.8 95 +10 +10 1014.4 1010.1
03 18.06 Ю 2 35 км н/о +11.8 +10.9 94 +11 +11 1014.2 1010.0
04 18.06 Ю 3 30 км н/о +10.8 +9.8 94 +9 +9 1014.1 1009.9
05 18.06 Ю 2 30 км н/о +11.2 +10.1 93 +10 +10 1014.0 1009.7
06 18.06 Ю 3 30 км н/о +12.3 +11.0 92 +11 +11 1014.1 1009.9 +10.1 2
07 18.06 Ю 3 30 км н/о +12.5 +10.4 87 +11 +11 1014.3 1010.0
08 18.06 Ю 2 35 км н/о +14.2 +11.7 85 +14 +14 1014.3 1010.1
09 18.06 ЮЗ 3 30 км н/о +15.8 +11.2 74 +15 +15 1014.0 1009.8
10 18.06 З 4 20 км н/о +17.1 +10.0 63 +17 +17 1013.6 1009.5
11 18.06 З 3 19 км н/о +18.2 +11.5 65 +19 +19 1013.6 1009.4
12 18.06 ЮЗ 3 40 км н/о +17.8 +11.0 64 +18 +18 1013.4 1009.3
13 18.06 ЮЗ 2 30 км н/о +18.2 +11.5 65 +19 +19 1013.2 1009.1
14 18.06 ЮЗ 2 50 км н/о +17.9 +11.7 67 +18 +18 1012.9 1008.7
15 18.06 ЮЗ 2 35 км н/о +17.9 +11.3 65 +18 +18 1012.6 1008.5
16 18.06 З 1 40 км н/о +18.6 +12.7 69 +20 +20 1011.9 1007.8
17 18.06 СЗ 1 45 км н/о +18.7 +12.9 69 +21 +21 комфорт 1011.5 1007.4
18 18.06 СЗ 1 50 км н/о +18.0 +12.7 71 +20 +20 1011.3 1007.1 +19.1
19 18.06 В 1 45 км слаб. ливневой дождь н/о +17.2 +12.8 75 +19 +19 1011.1 1006.9
20 18.06 Ю 3 4800 м дождь н/о +14.8 +13.1 90 +14 +14 1011.3 1007.1
21 18.06 Ю 1 7000 м слаб. дождь н/о +14.3 +13.8 97 +15 +15 1011.4 1007.2
22 18.06 З 2 10 км в посл. час дождь н/о +13.9 +13.3 96 +13 +13 1011.1 1006.9
23 18.06 З 1 10 км слаб. ливневой дождь н/о +13.2 +12.4 95 +13 +13 1010.9 1006.7
00 19.06 СЗ 1 5000 м слаб. морось н/о +13.0 +12.4 96 +14 +14 1010.2 1005.9 3
01 19.06 СЗ 1 6000 м в посл. час морось н/о +12.8 +12.4 97 +13 +13 1009.9 1005.7
02 19.06 З 2 6000 м слаб. морось н/о +12.3 +11.9 97 +12 +12 1009.5 1005.3
03 19.06 СЗ 3 5000 м слаб. морось н/о +11.8 +11.5 98 +10 +10 1008.8 1004.6
04 19.06 СЗ 2 7000 м в посл. час морось н/о +11.6 +11.3 98 +10 +10 1008.7 1004.5
05 19.06 З 2 14 км слаб. ливневой дождь н/о +11.5 +11.0 97 +10 +10 1008.9 1004.7
06 19.06 СЗ 2 14 км слаб. дождь н/о +11.8 +11.1 95 +11 +11 1008.5 1004.2 +11.4 3
07 19.06 СЗ 3 24 км в посл. час дождь н/о +12.5 +11.4 93 +11 +11 1008.5 1004.3
08 19.06 С 2 35 км н/о +13.5 +11.0 85 +13 +13 1008.5 1004.3
09 19.06 СЗ 3 50 км н/о +14.4 +10.0 75 +14 +14 1008.5 1004.3
10 19.06 СЗ 2 50 км н/о +16.0 +11.9 77 +16 +16 1008.4 1004.3
11 19.06 СЗ 3 45 км н/о +17.6 +11.5 67 +18 +18 1008.3 1004.2
12 19.06 СЗ 3 27 км н/о +18.4 +11.1 62 +19 +19 1008.2 1004.1 0.2
13 19.06 СЗ 3 45 км н/о +18.7 +11.5 63 +20 +20 1008.2 1004.1
14 19.06 СЗ 3 40 км н/о +18.8 +12.0 65 +20 +20 1007.9 1003.8
15 19.06 З 4 40 км н/о +17.4 +11.7 69 +17 +17 1008.0 1003.9
16 19.06 СЗ 4 22 км н/о +17.7 +10.7 64 +18 +18 1007.9 1003.7
17 19.06 СЗ 4 27 км н/о +17.6 +9.7 60 +17 +17 1007.9 1003.8
18 19.06 СЗ 3 50 км н/о +16.5 +9.7 64 +16 +16 1008.1 1004.0 +19.4 0.2
19 19.06 З 3 40 км н/о +16.1 +8.8 62 +16 +16 1008.2 1004.1
20 19.06 З 1 50 км н/о +14.7 +8.1 65 +15 +15 1008.5 1004.3
21 19.06 СЗ 2 50 км н/о +12.5 +7.7 73 +12 +12 1008.8 1004.6
22 19.06 СЗ 2 50 км н/о +11.3 +7.1 75 +10 +10 1008.9 1004.7
23 19.06 ЮВ 1 45 км н/о +8.6 +6.6 87 +8 +8 1009.3 1005.0
00 20.06 Ю 1 50 км н/о +8.8 +7.6 92 +8 +8 1009.2 1004.9
01 20.06 Ю 2 50 км н/о +8.1 +6.6 90 +6 +6 1009.1 1004.8
02 20.06 Ю 2 40 км н/о +9.2 +7.8 91 +8 +8 1009.0 1004.7
03 20.06 Ю 3 25 км н/о +9.4 +8.2 92 +7 +7 1008.9 1004.7
04 20.06 Ю 3 17 км н/о +9.7 +8.8 94 +8 +8 1009.1 1004.9
05 20.06 Ю 3 17 км н/о +10.1 +9.1 94 +8 +8 1009.3 1005.1
06 20.06 ЮЗ 2 16 км н/о +10.8 +9.6 92 +9 +9 1009.6 1005.3 +7.3
07 20.06 ЮЗ 3 35 км в посл. час дождь н/о +12.1 +10.4 89 +11 +11 1009.7 1005.5
08 20.06 З 5 29 км в посл. час дождь н/о +13.4 +10.3 81 +12 +12 1010.0 1005.8
09 20.06 З 4 24 км в посл. час дождь н/о +13.1 +10.3 83 +11 +11 1010.4 1006.2
10 20.06 З 6 20 км в посл. час дождь н/о +15.4 +10.1 71 +14 +14 1010.7 1006.5
11 20.06 СЗ 6 35 км н/о +15.6 +9.4 67 +14 +14 1011.1 1006.9
12 20.06 З 6 35 км н/о +15.4 +8.1 62 +14 +14 1011.5 1007.3 0.2
13 20.06 З 6 50 км н/о +17.6 +10.0 61 +17 +17 1011.6 1007.4
14 20.06 З 6 35 км н/о +16.1 +7.2 56 +15 +15 1011.8 1007.6
15 20.06 СЗ 5 35 км н/о +15.2 +7.6 60 +14 +14 1012.0 1007.8
16 20.06 З 4 9000 м ливневой дождь н/о +14.5 +10.7 78 +13 +13 1012.2 1008.0
17 20.06 СЗ 5 29 км в посл. час дождь н/о +16.2 +7.8 57 +15 +15 1012.3 1008.1
18 20.06 СЗ 4 45 км н/о +15.1 +7.2 59 +14 +14 1012.5 1008.3 +18.0 0.4
19 20.06 З 4 27 км н/о +13.9 +7.6 66 +13 +13 1013.0 1008.8
20 20.06 З 2 50 км н/о +12.1 +8.0 76 +11 +11 1013.3 1009.0
21 20.06 штиль 0 50 км н/о +10.0 +7.4 84 +9 +9 1013.9 1009.6

 

Местоположение метеостанции Ростерн Мир (Великобритания): широта 53.35 долгота -2.37 высота над уровнем моря 35 м.

В архиве по умолчанию представлена погода на Ростерн Мир за последнюю неделю. Архивные данные за месяц целиком и за предыдущие месяцы, начиная с января 2011 года, Вы можете получить, выбрав интересующий диапазон дат из раскрывающегося списка и нажав кнопку "Ввод!".


*Определитесь, кто Вы:
робот инопланетянин человек

Внимание! Время в таблицах - всемирное. Для получения местного времени необходимо прибавить поправку, которая равна 0 ч.

Смотрите также архив погоды в соседних городах и на ближайших метеорологических станциях:

Погода в Лик-Торнклифф (Великобритания) (36 км)
Погода в Гавардене (Великобритания) (45 км)
Погода в Кросби (Великобритания) (49 км)
Погода в Лидс-Брэдфорд (Великобритания) (54 км)
Погода в Бингли (Великобритания) (62 км)
Погода в Блэкпуле (Великобритания) (64 км)
Погода в Шобери (Великобритания) (64 км)
Погода в Риле (Великобритания) (76 км)
Погода в Ноттингеме (Великобритания) (84 км)
Погода в Бала (Великобритания) (94 км)

Пояснения к столбцам:

Ветер - указаны скорость ветра в м/с - средняя за 10 мин, порывы в срок и между сроками (в фигурных скобках) и направление, откуда дует ветер: С - северный, СВ - северо-восточный, В - восточный, ЮВ - юго-восточный, Ю - южный, ЮЗ - юго-западный, З - западный, СЗ - северо-западный.
Видимость - горизонтальная дальность видимости в метрах или километрах. При видимости от 1 до 10 км при отсутствии осадков обычно наблюдается дымка, при ухудшении видимости до 1 км и менее - туман. В сухую погоду видимость может ухудшаться дымом, пылью или мглою.
Явления - указаны атмосферные явления, наблюдавшиеся в срок или в последний час перед сроком; фигурными скобками обозначены явления, наблюдавшиеся между сроками (за 1-3 часа до срока); квадратными скобками обозначены град или гололедные отложения с указанием их диаметра в мм.
Облачность - указаны через наклонную черту общая и нижняя облачность в баллах и высота нижней границы облаков в метрах; квадратными скобками обозначены формы облаков: Ci - перистые, Cs - перисто-слоистые, Cc - перисто-кучевые, Ac - высококучевые, As - высокослоистые, Sc - слоисто-кучевые, Ns - слоисто-дождевые, Cu - кучевые, Cb - кучево-дождевые. Подробнее классификацию облаков см. в Атласе облаков (PDF).
T - Температура воздуха - температура, измеренная на высоте 2 м над землей.
Td - Температура точки росы - температура, при понижении до которой содержащийся в воздухе водяной пар достигнет насыщения.
f - Относительная влажность воздуха - влажноcть воздуха, измеренная на высоте 2 м над землей.
Te - Эффективная температура - температура, которую ощущает одетый по сезону человек в тени. Характеристика душности погоды. При расчете учитывается влияние влажности воздуха и скорости ветра на теплоощущения человека.
Tes - Эффективная температура на солнце - температура, которую ощущает человек, с поправкой на солнечный нагрев. Характеристика знойности погоды. Зависит от высоты солнца над горизонтом, облачности и скорости ветра. Ночью, в пасмурную погоду, а также при ветре 12 м/с и более поправка равна нулю.
P - Атмосферное давление - приведенное к уровню моря атмосферное давление.
Po - Атмосферное давление - измеренное на уровне метеостанции атмосферное давление.
Tmin - Минимальная температура - минимум температуры воздуха на высоте 2 м над землей.
Tmax - Максимальная температура - максимум температуры воздуха на высоте 2 м над землей.
R - Количество осадков - Количество выпавших осадков за период времени, мм. При наведении курсора мыши на число - период времени, за который выпало указанное количество осадков.
R24 - Количество осадков - Количество выпавших осадков за 24 часа, мм.
S - Снежный покров - Высота снежного покрова, см. При наведении курсора мыши на число - состояние снежного покрова и степень покрытия местности в баллах.